Regional Weather Roundup
Issued by NWS

Home | Current Version | Previous Version | Graphics & Text | Print | Product List | Glossary On
Versions: 1 2 3 4 5 6 7 8 9 10 11 12 13 14 15 16 17 18 19 20 21 22 23 24 25 26 27 28 29 30 31 32 33 34 35 36 37 38 39 40 41 42 43 44 45 46 47 48 49 50
000
ASUS45 KBOI 222310
RWRID
WEATHER ROUNDUP FOR IDAHO
NATIONAL WEATHER SERVICE BOISE ID
400 PM MST SAT NOV 22 2014

NOTE: "FAIR" INDICATES FEW OR NO CLOUDS BELOW 12000 FEET
WITH NO SIGNIFICANT WEATHER AND/OR OBSTRUCTIONS TO VISIBILITY

IDZ012-014-230000-
SOUTHWEST IDAHO


CITY           SKY/WX    TMP DP  RH WIND       PRES   REMARKS
BOISE          CLOUDY    43  35  73 W3        29.83R
CALDWELL       NOT AVBL
MOUNTAIN HOME  PTSUNNY   44  38  79 N13       29.81R
$$

IDZ016-017-230000-
SOUTHCENTRAL IDAHO


CITY           SKY/WX    TMP DP  RH WIND       PRES   REMARKS
BURLEY         CLOUDY    40  33  76 W16       29.76R WCI  31
JEROME         CLOUDY    40  34  79 SW17G25   29.79R WCI  31
TWIN FALLS     CLOUDY    42  35  76 W16       29.81R
$$

IDZ019>023-230000-
SOUTHEAST IDAHO


CITY           SKY/WX    TMP DP  RH WIND       PRES   REMARKS
IDAHO FALLS    CLOUDY    37  34  89 SW20      29.67R WCI  27
POCATELLO      MOCLDY    39  36  89 SW24G36   29.72R WCI  28
REXBURG        LGT SNOW  33  31  92 E5        29.68R FOG     WCI  29
$$

IDZ006-010-011-018-031-032-230000-
CENTRAL IDAHO MOUNTAINS


CITY           SKY/WX    TMP DP  RH WIND       PRES   REMARKS
MCCALL         MOCLDY    36  26  67 CALM      29.74R
HAILEY         PTCLDY    41  16  36 NW12G17   29.72R
STANLEY          N/A     32  17  54 NW5       29.75R WCI  27
SALMON         PTCLDY    43  19  39 E8        29.68R
CHALLIS        PTCLDY    39  18  42 W10       29.69R WCI  32
$$

IDZ002-004-006-007-026-230000-
NORTHERN IDAHO


CITY           SKY/WX    TMP DP  RH WIND       PRES   REMARKS
LEWISTON       CLOUDY    48  32  53 W17       29.78R
LOWELL           N/A     41  39  93 VRB5      29.77R
COEUR D`ALENE  MOCLDY    39  30  70 SW12      29.72R WCI  32
MULLAN PASS    CLOUDY    24  22  91 VRB7      29.63R WCI  16
$$


USA.gov is the U.S. government's official web portal to all federal, state and local government web resources and services.